Theta_e
319 319 320 320 320 320 320 320 321 322 322 323 325 322 317 320 322 322 321 321 320 321 322 323 323 324 331 336 341 343 342 343 344 341 341 338 342 347 348 353 349 350 349 352 353
319 319 319 319 320 320 320 320 321 322 322 322 325 325 316 317 320 321 320 320 320 322 323 324 323 325 329 332 337 341 342 342 341 340 341 339 341 344 348 350 349 349 350 353 354
318 318 319 319 319 319 320 320 320 321 322 322 325 326 318 316 319 320 325 320 320 321 323 323 323 324 327 329 332 339 342 341 341 343 345 346 347 346 347 349 349 349 350 354 354
316 317 318 318 318 319 319 320 320 320 321 321 324 326 320 318 316 326 325 322 320 322 323 322 322 327 328 329 331 341 340 341 340 345 345 345 344 339 346 348 348 349 350 354 354
313 314 316 316 317 317 318 319 319 320 321 321 322 325 321 318 319 324 324 323 320 322 322 322 323 329 329 329 331 338 340 341 343 342 343 342 339 343 347 348 347 348 349 351 352
310 311 312 314 315 317 318 318 319 320 319 321 321 324 318 316 320 322 324 325 322 321 322 321 325 331 330 327 329 339 341 343 343 344 343 339 339 341 348 348 347 347 347 350 351
308 309 310 311 313 315 317 318 318 319 320 319 321 324 318 322 321 324 325 325 323 321 321 321 324 327 329 325 332 339 341 340 342 344 344 347 348 346 346 348 348 347 347 347 348
308 308 309 310 311 313 316 318 319 319 320 320 322 323 320 323 321 327 327 324 322 322 321 322 325 327 327 328 330 333 332 335 337 343 345 345 351 344 347 347 347 348 347 348 348
307 308 309 310 310 312 315 317 320 320 321 327 324 322 323 326 327 327 328 325 320 321 323 325 325 326 327 328 325 328 332 338 337 338 342 344 349 345 345 346 346 347 347 348 347
307 307 308 310 310 311 314 316 320 322 330 327 322 325 323 326 329 327 327 327 323 322 324 323 324 326 324 324 327 331 335 337 337 335 340 346 347 346 345 345 346 346 346 347 347
306 307 308 309 310 310 314 316 320 325 324 325 326 327 327 328 330 327 328 327 326 322 319 323 322 323 327 326 327 330 336 338 337 334 346 347 348 348 346 347 347 347 347 347 347
305 306 308 310 310 311 312 313 320 319 319 322 324 325 325 325 330 331 327 326 324 319 320 321 323 325 329 330 329 328 334 338 339 335 335 347 349 347 347 348 348 348 350 348 349
305 306 306 309 310 312 313 318 317 318 320 322 323 325 324 326 328 329 326 325 321 320 321 320 323 329 331 331 331 328 336 337 339 339 338 345 347 346 347 347 347 348 350 351 351
304 305 306 308 311 311 312 316 315 321 319 322 323 324 324 326 326 328 329 327 321 320 321 321 324 327 331 331 330 325 329 337 340 341 341 339 348 342 344 343 341 346 348 350 350
304 304 305 305 308 310 310 314 317 322 328 326 327 326 323 327 327 327 328 326 322 321 320 322 325 325 327 330 328 327 327 328 340 339 336 342 341 345 337 337 336 342 346 348 349
303 304 305 306 308 310 313 316 320 320 328 329 326 324 325 325 326 326 325 326 325 322 322 322 326 326 327 329 327 328 329 324 326 326 333 338 336 337 341 340 338 337 346 346 347
303 304 304 305 309 309 309 311 319 323 324 327 323 324 323 324 325 326 322 320 321 320 321 323 324 325 327 325 325 327 322 323 325 325 325 322 339 337 339 339 336 337 346 346 346
303 305 307 307 309 308 308 312 322 324 322 323 323 324 324 324 324 326 322 321 319 320 319 321 323 325 325 324 324 323 322 323 328 331 328 325 328 329 338 339 337 338 344 346 346
303 306 307 311 309 308 316 312 317 320 324 324 323 323 325 325 326 325 322 322 322 318 321 320 322 325 325 326 323 325 325 324 327 328 329 328 331 336 337 338 337 337 340 344 345
303 305 309 315 309 310 312 311 315 320 321 321 322 323 323 323 324 325 324 322 323 321 318 319 321 323 326 325 325 325 324 327 322 329 331 329 333 334 341 339 338 337 336 339 343
304 308 310 316 313 315 309 310 314 316 317 320 321 321 322 322 323 324 325 324 324 323 318 320 321 323 325 324 324 328 327 324 323 324 327 328 329 330 339 338 339 338 339 338 341
304 307 316 313 316 314 313 314 315 314 316 317 320 321 322 324 324 326 325 324 325 324 322 319 318 322 323 324 324 325 325 324 325 327 325 325 330 333 333 333 338 339 341 342 339
304 308 310 316 316 316 316 318 317 316 314 317 319 321 322 323 325 327 328 329 327 325 324 322 318 323 323 323 325 327 326 326 322 322 326 329 331 331 329 330 333 334 340 341 340
307 310 317 316 315 317 315 318 320 322 320 321 320 321 323 324 325 326 326 327 329 325 327 325 318 321 324 324 325 326 326 326 325 325 325 328 331 332 332 331 331 333 335 338 338
309 313 311 311 312 308 312 318 322 323 324 323 320 326 326 324 325 329 333 332 331 330 330 321 321 323 323 326 328 328 328 326 326 325 328 326 330 329 332 332 332 335 335 335 338
313 313 313 310 309 312 312 319 318 318 322 323 327 327 326 325 332 333 330 330 330 328 326 319 322 323 326 327 327 327 329 328 329 328 329 327 332 329 333 335 334 336 336 337 337
306 310 312 310 309 312 313 315 315 315 322 326 326 326 328 326 326 327 329 328 328 328 327 322 322 323 325 327 328 330 330 329 331 334 329 327 326 330 332 331 332 333 333 334 333
Wind_Speed
18 19 19 19 19 18 18 19 17 17 20 22 21 22 21 20 20 22 27 21 15 15 14 13 13 9 5 6 8 13 5 4 4 7 3 17 13 22 16 29 18 7 29 35 34
18 18 19 20 20 20 18 19 19 18 19 21 21 22 21 19 19 26 21 20 16 17 14 12 12 8 6 10 9 7 5 10 6 5 6 12 24 22 13 22 19 28 33 34 35
19 19 19 20 21 21 20 19 20 20 19 21 20 22 20 18 19 9 5 14 20 21 16 14 12 11 6 11 17 9 10 10 11 10 18 14 13 14 26 14 39 34 36 39 38
19 19 20 21 22 21 21 21 20 21 20 22 20 21 18 15 6 2 5 8 22 19 19 18 12 3 3 3 6 7 22 22 11 21 20 10 15 7 13 18 34 40 36 42 41
20 20 20 21 21 23 22 21 21 21 22 22 22 21 16 10 21 9 3 6 19 22 23 17 8 5 4 4 10 16 12 26 26 25 19 17 10 13 21 34 35 36 37 38 37
20 21 21 21 22 22 23 22 22 22 22 22 23 20 12 6 6 10 4 8 16 23 22 18 8 4 11 7 4 16 34 31 30 24 19 20 16 11 26 34 34 34 31 35 31
22 21 22 21 21 23 23 23 24 23 24 22 22 19 15 28 12 6 9 8 14 21 21 18 18 14 4 10 12 37 22 15 17 19 8 27 7 7 29 33 32 31 30 29 26
25 23 23 22 22 23 23 23 24 25 24 24 18 16 13 16 9 12 9 9 17 19 18 14 13 17 16 18 7 8 12 8 6 17 16 11 5 12 33 32 28 30 31 31 29
25 25 24 23 23 23 23 23 23 26 24 15 8 8 14 6 11 13 15 9 13 18 15 13 15 20 14 2 5 6 8 13 6 6 9 6 8 17 32 30 28 29 30 33 32
25 27 25 23 23 25 23 21 23 16 5 6 6 6 12 5 10 17 12 11 11 16 15 14 8 2 3 4 4 4 8 17 14 10 4 10 8 19 28 28 29 30 29 30 36
25 25 27 25 21 24 23 20 11 3 16 16 23 24 35 30 19 18 17 18 18 10 5 6 3 6 9 8 6 4 8 14 11 11 7 15 13 19 25 24 24 27 29 31 35
26 27 26 25 22 21 20 11 12 14 16 29 31 34 39 34 20 23 22 15 11 7 4 4 7 11 6 5 6 4 7 9 1 10 7 13 18 18 23 28 31 29 31 35 32
26 26 27 24 22 19 12 10 14 22 7 24 37 34 40 20 27 31 27 29 5 7 6 7 8 6 5 8 5 6 8 10 11 5 7 11 1 9 15 22 25 27 39 41 38
25 25 26 26 14 10 17 6 15 13 3 9 6 14 28 21 9 26 28 25 6 14 5 6 14 9 8 8 6 8 10 14 9 15 7 7 5 7 16 15 12 23 31 37 40
25 24 24 22 24 19 15 9 7 4 4 5 6 5 19 15 5 16 36 25 11 7 8 9 10 12 11 16 7 12 8 11 11 15 7 3 5 11 8 9 11 20 36 43 43
26 24 25 20 25 13 4 5 1 5 7 7 5 6 7 11 9 18 28 31 18 4 3 10 17 8 11 18 10 13 5 6 5 5 2 12 7 4 10 25 20 17 33 36 43
29 24 25 25 22 12 14 9 4 4 5 6 5 7 7 7 8 7 14 11 14 7 9 4 16 12 12 7 8 4 6 2 2 1 6 8 9 12 20 24 17 22 35 40 45
32 26 24 25 20 15 8 3 5 10 16 4 11 14 4 2 8 9 8 13 11 5 3 9 11 14 6 11 11 8 10 6 7 3 6 9 7 11 17 35 33 34 44 43 43
33 27 25 19 13 15 12 3 9 7 3 3 6 6 3 3 3 9 11 16 16 11 14 6 8 8 11 12 10 9 4 10 7 1 3 4 8 7 7 16 21 26 32 39 43
34 29 18 7 14 23 3 7 7 5 7 8 1 4 7 5 7 10 11 13 17 13 9 8 5 8 14 5 7 16 7 3 3 7 4 5 4 6 5 11 11 12 25 37 40
24 14 7 5 20 14 4 7 6 16 18 4 4 8 12 16 15 12 16 12 24 20 13 13 5 15 2 6 11 2 3 4 6 5 6 3 6 7 16 17 17 17 32 33 42
11 4 10 24 5 5 3 5 6 12 20 9 6 14 12 16 24 15 21 14 32 24 12 10 7 14 18 12 8 9 10 7 6 5 2 5 6 5 13 12 23 26 32 35 41
21 9 13 19 3 3 6 8 9 10 11 7 9 14 13 14 12 9 7 10 13 25 20 12 6 8 9 7 3 8 6 7 5 5 7 6 5 2 5 4 18 23 29 29 30
7 4 5 7 12 2 5 7 9 11 10 14 19 20 13 14 7 5 6 6 4 26 42 18 6 10 15 9 5 6 8 7 8 5 6 6 5 4 7 10 10 28 32 29 28
4 4 5 4 4 9 3 5 13 15 9 8 10 2 6 8 6 4 5 7 2 8 21 11 10 7 9 18 10 15 14 9 6 9 9 8 11 10 11 13 20 32 29 25 27
6 6 8 9 15 5 5 2 11 13 8 7 5 8 9 3 4 2 0 2 5 8 4 6 8 10 17 9 8 8 6 11 7 5 1 7 7 10 21 24 22 33 32 27 22
8 8 4 8 5 4 1 10 17 17 9 2 2 3 3 5 16 15 18 10 9 4 4 10 7 5 9 7 7 4 5 5 1 4 5 7 12 11 5 7 19 24 24 23 17
Wind_Direction
338 337 337 338 338 339 338 335 333 333 332 332 328 325 321 307 294 281 267 252 253 237 235 238 258 262 276 268 185 134 100 260 219 152 209 161 125 151 139 138 154 197 155 148 152
334 333 332 333 335 334 335 333 330 330 329 330 328 327 325 317 298 279 279 255 233 218 224 232 242 236 259 244 195 169 139 204 236 176 155 141 135 144 134 148 119 125 138 155 157
330 330 329 328 330 331 330 331 329 326 326 328 325 327 320 321 311 287 259 224 203 209 218 228 241 265 238 237 228 216 220 158 209 153 132 120 122 134 136 143 146 152 154 161 162
326 326 326 325 325 326 327 326 326 323 323 325 321 323 316 316 277 268 354 203 188 196 212 227 249 221 260 260 241 153 215 153 198 153 141 160 121 95 165 160 152 148 156 163 166
322 322 322 322 321 322 322 321 321 320 320 322 319 319 315 291 266 237 34 174 181 195 212 223 245 242 245 275 335 202 126 156 162 150 141 136 107 107 120 143 148 149 154 162 165
322 320 320 319 318 317 318 319 317 316 315 319 318 312 303 273 308 216 214 199 201 201 211 215 213 226 291 275 34 146 136 150 148 136 131 118 133 101 139 145 151 157 160 172 178
323 322 319 317 316 314 314 316 313 313 311 311 311 300 284 271 287 228 202 228 227 218 218 220 226 254 296 324 356 142 131 135 152 152 128 104 71 120 150 151 154 162 170 175 175
323 322 320 318 316 312 311 313 311 310 309 303 297 286 267 293 215 198 211 223 220 227 231 230 235 270 270 285 314 149 116 134 226 147 162 100 151 133 150 153 161 166 174 179 186
323 320 318 318 318 312 308 313 311 310 307 306 277 265 270 257 228 205 211 210 212 217 224 237 268 264 272 107 356 321 149 137 156 248 138 110 144 164 159 159 166 178 184 185 190
322 320 315 316 318 313 308 316 314 310 315 351 259 296 262 225 263 201 210 211 217 208 239 249 240 173 38 91 227 219 102 161 170 176 108 137 169 166 172 171 176 184 189 190 193
320 317 315 315 316 314 313 326 341 324 318 283 276 264 279 277 301 227 199 206 219 215 185 242 119 216 232 199 196 211 138 179 195 151 125 156 160 175 178 184 191 189 192 192 193
321 317 313 312 313 309 305 308 355 316 301 287 279 274 271 272 280 272 206 213 198 203 176 305 222 229 228 215 233 217 194 191 193 161 112 164 171 181 181 195 195 190 184 184 188
319 318 315 311 313 306 294 312 325 327 253 278 260 250 252 247 241 254 212 212 153 196 207 189 242 222 221 268 280 285 194 199 190 147 74 128 176 188 204 200 205 199 189 185 188
318 317 316 314 310 302 315 281 315 321 326 283 230 242 228 224 267 235 226 204 215 200 197 205 246 241 234 244 186 270 218 215 168 157 161 177 207 240 196 196 204 192 187 188 191
316 315 314 316 300 301 309 312 310 322 321 251 236 270 197 167 229 202 195 195 199 185 140 231 220 228 238 239 189 241 218 200 168 175 107 191 103 213 138 209 216 199 196 194 198
314 312 308 305 288 313 345 326 208 47 254 291 197 177 107 168 232 180 186 201 211 200 212 212 251 179 220 247 227 246 253 49 54 98 136 206 158 249 187 208 210 217 201 197 199
310 311 300 289 279 283 303 323 60 174 306 277 30 17 175 168 222 168 182 186 201 171 223 303 243 248 219 242 272 159 69 312 327 132 204 195 191 234 208 216 203 199 196 198 202
311 311 294 275 276 260 244 71 208 222 229 289 340 330 280 164 223 217 171 197 220 131 167 218 255 226 216 192 221 201 156 156 195 256 260 136 211 245 201 207 205 199 196 197 195
316 316 295 284 251 211 188 181 203 204 239 337 12 302 268 252 247 214 180 206 210 177 205 173 247 264 223 225 163 244 146 188 138 84 69 256 300 330 192 195 189 183 184 193 196
327 322 309 304 200 180 129 232 227 212 319 330 169 243 275 292 315 209 208 195 207 193 166 219 269 246 254 198 246 193 178 94 1 166 202 281 259 229 189 182 192 192 185 192 196
331 321 309 266 165 164 197 229 266 264 285 253 225 265 275 292 283 276 220 223 196 207 172 197 145 262 23 213 216 89 132 65 122 140 162 226 268 218 199 187 187 199 209 192 195
354 323 324 160 129 193 213 224 229 260 281 286 278 264 270 298 302 269 220 201 193 203 199 197 175 236 248 249 238 169 174 148 142 230 154 166 263 261 183 184 183 201 206 211 201
331 283 219 208 269 253 277 269 263 265 247 253 256 267 279 285 280 239 201 220 221 202 202 198 210 236 297 330 345 184 169 145 110 93 184 142 254 134 57 115 178 181 204 211 213
312 322 316 222 282 344 5 287 284 287 272 280 279 276 289 272 246 280 283 274 251 205 209 174 146 193 226 214 187 201 174 162 142 142 174 203 191 150 176 166 169 173 168 177 184
249 254 5 320 313 323 272 273 294 304 280 277 294 74 338 272 293 322 322 324 297 249 215 162 187 159 215 223 215 211 194 160 151 183 171 216 180 203 186 177 176 172 174 179 185
316 357 335 292 289 299 281 285 325 309 262 276 254 341 344 297 280 268 313 305 278 325 249 175 222 156 226 235 221 172 205 170 152 138 10 159 211 198 193 168 172 173 178 182 195
321 306 321 286 309 320 19 332 310 316 306 72 290 320 24 314 299 260 259 246 237 273 294 155 147 123 215 157 121 89 132 231 307 54 182 176 221 154 156 181 168 164 165 155 149